{"data":{"norad_id":64382,"intl_designator":"2025-127N","name":"STARLINK-11740 [DTC]","alt_names":[],"object_type":"PAYLOAD","status":"ACTIVE","operator":null,"country":"US","launch_date":"2025-06-13","launch_site_code":"AFETR","launch_vehicle":null,"mission":null,"orbit_class":"UNKNOWN","rcs_meters":null,"size_class":null,"mass_kg":null,"dimensions":null,"purposes":["comms"],"wikipedia_slug":null,"has_3d_model":false,"image_url":null,"decayed_at":null,"tle_current":{"epoch":"2026-09-20T22:32:55.372128Z","epoch_age_seconds":96613,"freshness":"FRESH","line1":"1 64382U 25127N   26263.93952977  .00118646  00000+0  90895-3 0  9999","line2":"2 64382  43.0010 347.3141 0000996 342.6115  17.4719 15.70998280 74214","mean_motion":15.7099828,"eccentricity":9.96e-5,"inclination_deg":43.001,"raan_deg":347.3141,"arg_perigee_deg":342.6115,"mean_anomaly_deg":17.4719,"bstar":0.00090895,"rev_number":7421,"period_min":91.661462544695,"perigee_km":355.37198139039,"apogee_km":356.71342998777,"semimajor_km":6734.1797056891,"source":"CELESTRAK","updated_at":"2026-09-21T09:00:35.324368Z"}}}